Track STARLINK-1803 now! 10-day predictions STARLINK-1803 is classified as:
1 46703U 20073AK 22185.88198625 -.00002200 00000-0 -12889-3 0 9994 2 46703 53.0544 154.1973 0002017 59.4949 300.6238 15.06387557 94588